187P/LINEAR (2018)

Japanese version
Home page
Updated on May 22, 2017

---------------------------------------------------------------------

* Profile

* Orbital Elements

Epoch 2018 June 11.0 TT = JDT 2458280.5
T 2018 May 26.55513 TT                                  MPCW
q   3.8806849            (2000.0)            P               Q
n   0.09996008     Peri.  133.24606     -0.43127717     +0.87472775
a   4.5981695      Node   109.97959     -0.88085414     -0.35523654
e   0.1560370      Incl.   13.60210     -0.19518192     -0.32963368
P   9.86
From 160 observations 1999 May 12-2017 Apr. 28, mean residual 0".7.

* Magnitudes Graph

        m1 = 3.5 + 5 log d + 20.0 log r

---------------------------------------------------------------------

The orbital elements are published on M.P.E.C. 2017-J52.
The magnitudes graphs are made with Comet for Windows.

---------------------------------------------------------------------

Copyright(C) Seiichi Yoshida (comet@aerith.net). All rights reserved.